Hattiesburg Laurel Regional Airport
KPIB : now visible

Airfield :











YOU CAN JOIN US ON...

 
LOGIN :

Register | Disclaimer

   EN    FR    IT 

 









Legend :    VFR   Marginal VFR   IFR   Intensive IFR   Very Intensive IFR
Visi :
Ceiling :
>= 8 km
>= 3000ft
5 to 8 km
1000 to 3000 ft
1500m to 5 km
500 to 1000 ft
800 to 1500m
200 to 500 ft
< 800m
< 200 ft
Symbols :   Thunderstorms  Fog  Heavy snow  Heavy precipitations  Wind > 20 kt






- Airport Elevation : 298 ft
- IATA code : PIB


KPIB - Hattiesburg Laurel Regional

CURRENT METAR :
  • 060056Z AUTO 00000KT 10SM CLR 19/17 A3002 RMK AO2 SLP164 T01940167

EXPIRED METARs :
  • 052356Z AUTO 00000KT 10SM CLR 23/18 A3001 RMK AO2 SLP160 T02280178 10283 20228 55000
  • 052256Z AUTO 00000KT 10SM CLR 26/14 A3000 RMK AO2 SLP156 T02610144

TAF KPIB
Valid from the 06 at 00:00 until the 07 at 00:00 UTC


052332Z 0600/0624 03004KT P6SM SCT200
FM061000 00000KT 4SM BR OVC020
FM061400 00000KT P6SM BKN250



MET'MAP, your aeronautical weather chart ! - Copyright ORBIFLY December 2007 - Disclaimer

ORBIFLY MET'MAP TEAM :

Programming & Development : Alexandra Zaïnal
Concept & original design : Baudouin d'Aumeries
Assistance for programming : Marc-Olivier Méhu
Technical & hardware support : Manuel Goepfert

Contact : metmap@orbifly.com




SOURCES & CREDITS :

   NOAA       Earth
Advisory